Location: Unspecified
(0.0000°N, 0.0000°E)
Time: 15:25:00
(UTC+01:00)

AO-40 - Visible Passes

Search period start: 30 October 2014 00:00
Search period end: 09 November 2014 00:00
Orbit: 1087 x 58735 km, 8.6° (Epoch: 29 October)

Date Brightness Start Highest point End Pass type
(mag) Time Alt. Az. Time Alt. Az. Time Alt. Az.
30 Oct ? 00:00:00 47° W 23:59:30 47° W 03:35:05 10° W visible
30 Oct ? 15:26:29 10° W 22:34:32 86° S 05:05:46 10° W visible
31 Oct ? 17:32:33 10° E 00:07:25 90° N 05:18:26 10° ENE visible
01 Nov ? 19:08:51 10° E 22:26:00 34° E 23:49:44 10° E visible
02 Nov ? 20:14:53 10° W 21:52:36 60° WSW 03:26:39 10° W visible
03 Nov ? 14:59:02 10° W 22:25:44 87° S 04:57:56 10° W visible
04 Nov ? 17:23:33 10° E 00:00:19 89° N 04:50:52 10° ENE visible
05 Nov ? 19:02:52 10° E 21:58:35 30° E 23:18:40 10° E visible
06 Nov ? 19:46:22 10° W 21:25:03 64° WSW 03:18:03 10° W visible
07 Nov ? 14:31:36 10° W 22:16:49 87° S 04:50:28 10° W visible
08 Nov ? 17:14:29 10° E 23:53:43 89° N 00:00:00 88° NW visible
